Regional Weather Roundup
Issued by NWS

Home | Current Version | Previous Version | Graphics & Text | Print | Product List | Glossary On
Versions: 1 2 3 4 5 6 7 8 9 10 11 12 13 14 15 16 17 18 19 20 21 22 23 24 25 26 27 28 29 30 31 32 33 34 35 36 37 38 39 40 41 42 43 44 45 46 47 48 49 50
859
ASUS43 KDTX 092210
RWRMI
MICHIGAN HOURLY REGIONAL WEATHER ROUNDUP
NATIONAL WEATHER SERVICE DETROIT/PONTIAC MI
500 PM EST TUE FEB 09 2016

NOTE: "FAIR" INDICATES FEW OR NO CLOUDS BELOW 12,000 FEET WITH NO
SIGNIFICANT WEATHER AND/OR OBSTRUCTION TO VISIBILITY.

MIZ047>049-052>055-059>063-066>070-074>076-081>083-092300-
SOUTHEAST LOWER MICHIGAN

CITY           SKY/WX    TMP DP  RH WIND       PRES   REMARKS
ADRIAN         CLOUDY    27  19  72 NW10G22   29.68R WCI  17
ALMA           CLOUDY    28  21  76 W20       29.66R WCI  14
ANN ARBOR      CLOUDY    27  20  75 NW14G22   29.65R WCI  16
BAD AXE        LGT SNOW  29  27  92 NW13G20   29.56R WCI  18
CARO           CLOUDY    27  25  93 W13       29.60R WCI  16
DETROIT CITY   LGT SNOW  28  22  78 W9        29.62R WCI  19
DETROIT        LGT SNOW  28  22  78 W15G22    29.64R WCI  16
FLINT          LGT SNOW  29  21  72 W21       29.63R WCI  16
GROSSE ILE     LGT SNOW  28  25  86 W13       29.63R WCI  18
HILLSDALE      CLOUDY    25  19  76 W15       29.67R WCI  13
HOWELL         CLOUDY    27  22  80 W16G22    29.63R WCI  15

CITY           SKY/WX    TMP DP  RH WIND       PRES   REMARKS
JACKSON        CLOUDY    25  17  72 W20G25    29.67R WCI  11
LAMBERTVILLE   CLOUDY    28  21  76 W15       29.68R WCI  16
LANSING        CLOUDY    26  18  71 W15G22    29.67R WCI  14
LAPEER         LGT SNOW  27  25  92 W9G17     29.60R WCI  17
MASON          CLOUDY    26  19  77 W17G24    29.66R WCI  13
MONROE         CLOUDY    28  23  81 W15G24    29.65R HAZE    WCI  16
MT. CLEMENS    LGT SNOW  29  24  82 W15       29.58R FOG     WCI  18
PONTIAC        LGT SNOW  26  22  84 W17       29.60R FOG     WCI  13
PORT HOPE        N/A     30  28  92 NW23G32   29.53R WCI  17
PORT HURON     LGT SNOW  28  27  93 W7        29.57R WCI  21
TRI CITIES     LGT SNOW  29  21  72 W15       29.64R WCI  18
MIDLAND        LGT SNOW  27  20  75 W14       29.63R WCI  16
TROY           CLOUDY    29  25  83 W16G25    29.63R FOG     WCI  18
SAGINAW HB     LGT SNOW  28  25  86 W16G23    29.62R WCI  17
$$
MIZ043>046-050>051-056>058-064>065-071>073-077>080-092300-
SOUTHWEST LOWER MICHIGAN

CITY           SKY/WX    TMP DP  RH WIND       PRES   REMARKS
BATTLE CREEK   FLURRIES  25  17  72 NW16      29.71R WCI  12
BENTON HARBOR  LGT SNOW  23  17  78 NW14G24   29.81R VSB 1   WCI  11
BIG RAPIDS     CLOUDY    25  18  77 NW8G18    29.68R WCI  16
COLDWATER      FLURRIES  26  20  77 W13G20    29.71R WCI  15
FREMONT        FLURRIES  24  17  76 NW17G23   29.73R WCI  10
HOLLAND        SNOW      24  21  88 NW16G22   29.76R VSB 1/4 WCI  11
GRAND RAPIDS   FLURRIES  26  18  71 W20       29.72R WCI  12
IONIA          CLOUDY    26  18  73 NW16G23   29.68R WCI  13
KALAMAZOO      FLURRIES  25  17  72 W17G24    29.73R WCI  12
LUDINGTON      SNOW      22  19  86 NW16G24   29.77R VSB 1/2 WCI   8
MARSHALL       CLOUDY    27  17  65 W15G25    29.69R WCI  15
MOUNT PLEASANT CLOUDY    28  19  69 NW6G20    29.65R WCI  21
MUSKEGON       LGT SNOW  25  17  72 NW18G24   29.77R WCI  11
SOUTH HAVEN    LGT SNOW  24  20  83 NW10G24   29.78R WCI  14
$$
MIZ016>042-092300-
NORTHERN LOWER MICHIGAN

CITY           SKY/WX    TMP DP  RH WIND       PRES   REMARKS
ALPENA         LGT SNOW  26  21  81 NW13G18   29.60R WCI  15
BEAVER ISLAND  LGT SNOW  21  16  81 N13G23    29.71R WCI   9
BELLAIRE       LGT SNOW  25  21  83 NW8       29.69R WCI  16
CADILLAC       FLURRIES  23  17  76 NW12G23   29.65R WCI  12
CHARLEVOIX     LGT SNOW  23  19  83 N16G23    29.72R WCI  10
FRANKFORT      LGT SNOW  24  16  73 N14G20    29.75R WCI  11
GAYLORD        LGT SNOW  22  16  78 VRB5      29.61R WCI  16
GRAYLING       LGT SNOW  26  21  84 NW9G16    29.62R VSB 1   WCI  16
HARBOR SPRINGS LGT SNOW  21  15  78 W9G18     29.67R WCI  11
HOUGHTON LAKE  LGT SNOW  24  18  77 NW14G21   29.62R WCI  12
MANISTEE       CLOUDY    23  16  74 NW18G25   29.75R WCI   9
OSCODA         LGT SNOW  28  26  89 NW12G18   29.57R VSB 1   WCI  18
PELLSTON       LGT SNOW  20  15  81 NW15G30   29.67R WCI   6
ROGERS CITY    LGT SNOW  26  22  86 NW13G18   29.62R WCI  15
TRAVERSE CITY  LGT SNOW  25  18  74 NW14      29.70R WCI  13
$$
MIZ007>008-015-092300-
EASTERN UPPER MICHIGAN

CITY           SKY/WX    TMP DP  RH WIND       PRES   REMARKS
KINROSS        CLOUDY    21  19  93 NW16G23   29.63R WCI   7
MACKINAC ISLAN FLURRIES  21  15  79 NW15G22   29.65R WCI   7
NEWBERRY       LGT SNOW  17  13  82 N13G25    29.69R WCI   4
S. S. MARIE    LGT SNOW  22  14  71 NW12      29.64R WCI  10
$$
MIZ004>006-011>014-085-092300-
CENTRAL UPPER MICHIGAN

CITY           SKY/WX    TMP DP  RH WIND       PRES   REMARKS
MANISTIQUE     LGT SNOW  19  11  74 N17G32    29.72R WCI   3
ESCANABA       CLOUDY    16  10  79 NW14G21   29.80R WCI   1
MENOMINEE      CLOUDY    16   7  67 N10G21    29.84R WCI   3
SAWYER-GWINN   SNOW      12   9  85 N23G35    29.78R VSB 1/2 WCI  -7
$$
MIZ001>003-009>011-084-092300-
WESTERN UPPER MICHIGAN

CITY           SKY/WX    TMP DP  RH WIND       PRES   REMARKS
IRON MOUNTAIN  SNOW      12   5  73 NW17G26   29.83R VSB 1/2 WCI  -5
HOUGHTON       LGT SNOW  11   4  73 N18G24    29.90S WCI  -7
COPPER HARBOR    N/A     16  13  88 NE22G39   29.91R WCI  -2
IRONWOOD       CLOUDY    10   7  85 NW9       29.94R WCI  -2
$$

ABBREVIATIONS USED IN REMARKS
   TC - TEMPERATURE IN CELSIUS
  WCI - WIND CHILL INDEX
   HX - HEAT INDEX
  VSB - VISIBILITY





USA.gov is the U.S. government's official web portal to all federal, state and local government web resources and services.